ECHO 1 DEB (METAL OBJ), 51

Orbit data source: Space-Track

ECHO 1 DEB (METAL OBJ), 51 is space debris in LEO originally from a launch on Fri, 12 Aug 1960 UTC launched from the Air Force Eastern Test Range (AFETR). Debris objects in space refer to the collection of defunct objects orbiting the Earth. Examples of debris include non-operational satellites, rocket bodies, and fragments generated from explosions, collisions, or faulty payload assembly.

Loading next visibility...
Identifier
51, 1960-009C
Orbit
LEO
Country
Flag of USUS
Related business
Manufacturer
Kaiser-Fleetwings
Mission
Spacecraft
Bus & Motor
ECHO CANISTER, Unknown motor
Mass
5 kg wet, 5 kg dry
Launch date (UTC)
1960-08-12 (65 years ago)
Launch vehicle
Unknown
Launch site
Air Force Eastern Test Range (AFETR)
Object type
Payload
Rocket body
Debris
Shape & HBR
Unknown
Radar Cross Section
0.600 m², Medium (>0.1 m² and < 1m²)

Expand to show TLE details & history
Last TLE update: 18 hours ago

TLE from 18 hours ago
0 ECHO 1 DEB (METAL OBJ)
1 00051U 60009C   25260.07215014  .00000043  00000-0  12498-2 0  9999
2 00051  47.2112 174.4738 0107813 103.2819 258.0019 12.18367442897875
Epoch: 2025-09-17T01:43Z
TLE epoch observation values (Epoch: 2025-09-17T01:43:53.772Z)
Latitude
0.00001°
Longitude
152.24641°
Altitude
1,618.635 km
Speed
7.054 km/s
True Right ascension
11h 37m 53s
True Declination
0° 00' 00"
Sunlit
Object was in daylight at epoch
Visualization orbit readout
Latitude
Unknown
Longitude
Unknown
Altitude
Unknown
Speed
Unknown
Apparent Right ascension
Unknown
Apparent Declination
Unknown
Sunlit
N/A
Visualization observer readout
Local Sidereal Time
12:40:01
Azimuth
Unknown
Elevation
Unknown
Doppler factor
Unknown
Orbital elements
Apogee altitude
1,686.749 km
Perigee altitude
1,514.704 km
Semi-major axis
7,978.863 km
Eccentricity
0.01078
Inclination
47.2112°
RAAN
174.4738°
Arg. of periapsis
103.2819°
True anomaly
256.79691°
Mean anomaly
258.0019°
Eccentric anomaly
257.39906°
Mean motion
3.04531 °/min
Orbital period
118.21 mins
BSTAR
0.0012498
Loading maneuver chart data...
Computing Atmospheric mass density...
Loading historical data...
Loading historical data...
Loading historical data...
Loading historical data...
Loading historical data...
Loading historical data...
Loading historical data...
Other satellites on launch #9 in the year 1960 (1960-08-12 UTC)

Documentation

Showing up to 5 results
|